Karlovy Vary, Czech Republic

7:58 AM CEST on June 25, 2017 (GMT +0200)
Karlovy Vary

Weather History for LKKV - December, 2012

Change the Weather History Date:

Saturday, December 29, 2012

  Actual Average (EDQM) Record (EDQM)
Temperature  
Mean Temperature 35 °F -  
Max Temperature 44 °F 29 °F 42 °F (2012)
Min Temperature 26 °F 24 °F -5 °F (1996)
Degree Days  
Heating Degree Days 30    
Moisture  
Dew Point 31 °F    
Average Humidity 86    
Maximum Humidity 100    
Minimum Humidity 61    
Precipitation  
Precipitation 0.00 in - - ()
Sea Level Pressure  
Sea Level Pressure 30.14 in    
Wind  
Wind Speed 3 mph ()    
Max Wind Speed 9 mph    
Max Gust Speed -    
Visibility 4.8 miles    
Events Fog    
Averages and records for this station are not official NWS values.
T = Trace of Precipitation, MM = Missing Value Source: Averaged Metar Reports

Daily Weather History Graph

Daily Weather History Graph

Search for Another Location

Airport or City:

Trip Planner

Search our weather history database for the weather conditions in past years. The results will help you decide how hot, cold, wet, or windy it might be!

Date:

Astronomy

Dec. 29, 2012 Rise Set
Actual Time 8:07 AM CET 4:13 PM CET
Civil Twilight 7:29 AM CET 4:52 PM CET
Nautical Twilight 6:47 AM CET 5:33 PM CET
Astronomical Twilight 6:07 AM CET 6:13 PM CET
Moon 5:39 PM CET (12/29) 8:22 AM CET (12/29)
Length of Visible Light 9h 22m
Length of Day
8h 05m
Full, 99% of the Moon is Illuminated
Dec 29
Full
Jan 5
Last Quarter
Jan 11
New
Jan 19
First Quarter
Jan 27
Full

Hourly Weather History & Observations

Time (CET) Temp. Windchill Dew Point Humidity Pressure Visibility Wind Dir Wind Speed Gust Speed Precip Events Conditions
12:00 AM 32.0 °F - 32.0 °F 100% 30.30 in 6.2 mi Variable 1.2 mph - N/A   Mostly Cloudy
1:00 AM 33.8 °F 30.8 °F 32.0 °F 93% 30.30 in 6.2 mi South 3.5 mph - N/A   Mostly Cloudy
2:00 AM 33.8 °F 30.8 °F 32.0 °F 93% 30.27 in 6.2 mi South 3.5 mph - N/A   Mostly Cloudy
3:00 AM 33.8 °F 30.8 °F 32.0 °F 93% 30.27 in 6.2 mi SSW 3.5 mph - N/A   Mostly Cloudy
4:00 AM 35.6 °F 32.8 °F 32.0 °F 87% 30.27 in 6.2 mi Variable 3.5 mph - N/A   Mostly Cloudy
5:00 AM 35.6 °F 32.8 °F 32.0 °F 87% 30.24 in 6.2 mi SE 3.5 mph - N/A   Mostly Cloudy
6:00 AM 35.6 °F 32.8 °F 33.8 °F 93% 30.24 in 6.2 mi South 3.5 mph - N/A   Overcast
7:00 AM 33.8 °F - 32.0 °F 93% 30.24 in 6.2 mi Variable 2.3 mph - N/A   Mostly Cloudy
7:30 AM 33.8 °F - 32.0 °F 93% 30.24 in 6.2 mi Variable 2.3 mph - N/A   Mostly Cloudy
8:00 AM 33.8 °F - 32.0 °F 93% 30.21 in 6.2 mi Variable 2.3 mph - N/A   Mostly Cloudy
8:30 AM 33.8 °F - 32.0 °F 93% 30.24 in 6.2 mi Variable 2.3 mph - N/A   Mostly Cloudy
9:00 AM 35.6 °F - 32.0 °F 87% 30.21 in 6.2 mi Variable 1.2 mph - N/A   Mostly Cloudy
9:30 AM 35.6 °F - 32.0 °F 87% 30.21 in 6.2 mi Variable 2.3 mph - N/A   Mostly Cloudy
10:00 AM 35.6 °F - 32.0 °F 87% 30.21 in 6.2 mi Variable 2.3 mph - N/A   Mostly Cloudy
10:30 AM 39.2 °F - 33.8 °F 81% 30.21 in 6.2 mi Variable 2.3 mph - N/A   Scattered Clouds
11:00 AM 39.2 °F 37.0 °F 33.8 °F 81% 30.21 in 6.2 mi East 3.5 mph - N/A   Mostly Cloudy
11:30 AM 39.2 °F - 33.8 °F 81% 30.18 in 6.2 mi Variable 2.3 mph - N/A   Mostly Cloudy
12:00 PM 41.0 °F 38.0 °F 32.0 °F 70% 30.18 in 6.2 mi South 4.6 mph - N/A   Partly Cloudy
12:30 PM 42.8 °F 39.3 °F 30.2 °F 61% 30.15 in - Variable 5.8 mph - N/A   Clear
1:00 PM 42.8 °F 40.1 °F 32.0 °F 66% 30.15 in - SE 4.6 mph - N/A   Clear
1:30 PM 44.6 °F 43.1 °F 33.8 °F 66% 30.12 in - SE 3.5 mph - N/A   Clear
2:00 PM 44.6 °F 42.2 °F 33.8 °F 66% 30.12 in - SE 4.6 mph - N/A   Clear
2:30 PM 42.8 °F 38.6 °F 33.8 °F 70% 30.09 in - SE 6.9 mph - N/A   Clear
3:00 PM 42.8 °F 38.6 °F 33.8 °F 70% 30.09 in - ESE 6.9 mph - N/A   Clear
3:30 PM 39.2 °F 35.0 °F 32.0 °F 75% 30.09 in - ESE 5.8 mph - N/A   Clear
4:00 PM 37.4 °F 32.8 °F 32.0 °F 81% 30.09 in - ESE 5.8 mph - N/A   Clear
4:30 PM 35.6 °F 29.9 °F 32.0 °F 87% 30.09 in - ESE 6.9 mph - N/A   Clear
5:00 PM 35.6 °F 29.2 °F 30.2 °F 81% 30.06 in - ESE 8.1 mph - N/A   Clear
5:30 PM 33.8 °F 26.4 °F 30.2 °F 87% 30.06 in - ESE 9.2 mph - N/A   Clear
6:00 PM 33.8 °F 27.7 °F 30.2 °F 87% 30.06 in - East 6.9 mph - N/A   Clear
6:30 PM 33.8 °F 27.7 °F 30.2 °F 87% 30.04 in - ESE 6.9 mph - N/A   Clear
7:00 PM 30.2 °F 23.4 °F 28.4 °F 93% 30.04 in - ESE 6.9 mph - N/A   Clear
7:30 PM 28.4 °F 23.3 °F 26.6 °F 93% 30.04 in - Variable 4.6 mph - N/A   Clear
7:48 PM 26.6 °F - 26.6 °F 100% 30.04 in 0.6 mi Variable 2.3 mph - N/A Fog Light Freezing Fog
8:00 PM 26.6 °F - 26.6 °F 100% 30.04 in 0.2 mi Variable 2.3 mph - N/A Fog Light Freezing Fog
8:43 PM 26.6 °F - 26.6 °F 100% 30.01 in 1.9 mi East 2.3 mph - N/A   Scattered Clouds
9:00 PM 26.6 °F - 26.6 °F 100% 30.01 in 0.5 mi Variable 1.2 mph - N/A Fog Light Freezing Fog
10:00 PM 28.4 °F - 26.6 °F 93% 30.01 in 0.2 mi Variable 1.2 mph - N/A Fog Light Freezing Fog
11:00 PM 28.4 °F 24.6 °F 26.6 °F 93% 30.01 in 0.7 mi East 3.5 mph - N/A   Mostly Cloudy